Time,TemperatureF,DewpointF,PressureIn,WindDirection,WindDirectionDegrees,WindSpeedMPH,WindSpeedGustMPH,Humidity,HourlyPrecipIn,Conditions,Clouds,dailyrainin,SoftwareType,DateUTC
2013-02-17 00:02:00,46.2,28.6,30.21,SSW,205,1.2,1.2,50,0.00,CLR,,0.00,WeatherDisplay:10.37,2013-02-17 06:02:00,
2013-02-17 00:03:00,46.3,28.7,30.21,SSW,205,1.2,1.2,50,0.00,CLR,,0.00,WeatherDisplay:10.37,2013-02-17 06:03:00,
2013-02-17 00:08:00,46.4,28.8,30.21,SSW,205,0.0,0.0,50,0.00,CLR,,0.00,WeatherDisplay:10.37,2013-02-17 06:08:00,
2013-02-17 00:13:00,46.5,28.8,30.21,SSW,205,0.0,0.0,50,0.00,CLR,,0.00,WeatherDisplay:10.37,2013-02-17 06:13:00,
2013-02-17 00:18:00,46.6,28.9,30.21,SSW,205,1.2,1.2,50,0.00,CLR,,0.00,WeatherDisplay:10.37,2013-02-17 06:18:00,
2013-02-17 00:23:00,46.6,28.4,30.21,SSW,205,0.0,0.0,49,0.00,CLR,,0.00,WeatherDisplay:10.37,2013-02-17 06:23:00,
2013-02-17 00:28:00,46.6,28.4,30.21,SSW,205,0.0,0.0,49,0.00,CLR,,0.00,WeatherDisplay:10.37,2013-02-17 06:28:00,
2013-02-17 00:33:00,46.7,28.5,30.21,SSW,205,0.0,0.0,49,0.00,CLR,,0.00,WeatherDisplay:10.37,2013-02-17 06:33:00,
2013-02-17 00:38:00,46.7,28.5,30.21,SSW,205,0.0,0.0,49,0.00,CLR,,0.00,WeatherDisplay:10.37,2013-02-17 06:38:00,
2013-02-17 00:43:00,46.7,28.5,30.21,SSW,205,0.0,0.0,49,0.00,CLR,,0.00,WeatherDisplay:10.37,2013-02-17 06:43:00,
2013-02-17 00:48:00,46.7,28.5,30.21,SSW,205,0.0,0.0,49,0.00,CLR,,0.00,WeatherDisplay:10.37,2013-02-17 06:48:00,
2013-02-17 00:53:00,46.8,28.6,30.20,SSW,205,0.0,0.0,49,0.00,CLR,,0.00,WeatherDisplay:10.37,2013-02-17 06:53:00,
2013-02-17 00:58:00,46.9,28.7,30.20,SSW,205,0.0,0.0,49,0.00,CLR,,0.00,WeatherDisplay:10.37,2013-02-17 06:58:00,
2013-02-17 01:03:00,47.0,28.8,30.20,SSW,205,0.0,0.0,49,0.00,CLR,,0.00,WeatherDisplay:10.37,2013-02-17 07:03:00,
2013-02-17 01:08:00,47.2,28.5,30.20,SSW,205,0.0,0.0,48,0.00,CLR,,0.00,WeatherDisplay:10.37,2013-02-17 07:08:00,
2013-02-17 01:13:00,47.3,28.6,30.20,SSW,205,0.0,0.0,48,0.00,CLR,,0.00,WeatherDisplay:10.37,2013-02-17 07:13:00,
2013-02-17 01:18:00,47.2,29.0,30.21,SSW,205,0.0,0.0,49,0.00,CLR,,0.00,WeatherDisplay:10.37,2013-02-17 07:18:00,
2013-02-17 01:23:00,46.9,28.7,30.20,SSW,205,0.0,0.0,49,0.00,CLR,,0.00,WeatherDisplay:10.37,2013-02-17 07:23:00,
2013-02-17 01:28:00,46.5,28.3,30.20,SSW,205,0.0,0.0,49,0.00,CLR,,0.00,WeatherDisplay:10.37,2013-02-17 07:28:00,
2013-02-17 01:33:00,46.2,28.6,30.20,SSW,205,0.0,0.0,50,0.00,CLR,,0.00,WeatherDisplay:10.37,2013-02-17 07:33:00,
2013-02-17 01:38:00,45.8,28.2,30.20,SSW,205,0.0,0.0,50,0.00,CLR,,0.00,WeatherDisplay:10.37,2013-02-17 07:38:00,
2013-02-17 01:43:00,45.4,28.8,30.20,SSW,205,0.0,0.0,52,0.00,CLR,,0.00,WeatherDisplay:10.37,2013-02-17 07:43:00,
2013-02-17 01:48:00,44.8,28.7,30.20,SSW,205,0.0,0.0,53,0.00,CLR,,0.00,WeatherDisplay:10.37,2013-02-17 07:48:00,
2013-02-17 01:53:00,44.4,28.3,30.20,SSW,205,0.0,0.0,53,0.00,CLR,,0.00,WeatherDisplay:10.37,2013-02-17 07:53:00,
2013-02-17 01:58:00,44.0,28.4,30.20,SSW,205,0.0,0.0,54,0.00,CLR,,0.00,WeatherDisplay:10.37,2013-02-17 07:58:00,
2013-02-17 02:03:00,43.7,28.1,30.20,SSW,205,0.0,0.0,54,0.00,CLR,,0.00,WeatherDisplay:10.37,2013-02-17 08:03:00,
2013-02-17 02:08:00,43.3,28.2,30.20,SSW,205,2.3,2.3,55,0.00,CLR,,0.00,WeatherDisplay:10.37,2013-02-17 08:08:00,
2013-02-17 02:13:00,43.0,28.4,30.20,SSW,205,2.3,2.3,56,0.00,CLR,,0.00,WeatherDisplay:10.37,2013-02-17 08:13:00,
2013-02-17 02:18:00,43.0,28.4,30.20,SSW,205,3.5,3.5,56,0.00,CLR,,0.00,WeatherDisplay:10.37,2013-02-17 08:18:00,
2013-02-17 02:23:00,43.1,28.5,30.20,SSW,205,3.5,3.5,56,0.00,CLR,,0.00,WeatherDisplay:10.37,2013-02-17 08:23:00,
2013-02-17 02:28:00,43.3,28.6,30.20,SSW,205,0.0,0.0,56,0.00,CLR,,0.00,WeatherDisplay:10.37,2013-02-17 08:28:00,
2013-02-17 02:33:00,43.5,28.8,30.20,SSW,205,0.0,0.0,56,0.00,CLR,,0.00,WeatherDisplay:10.37,2013-02-17 08:33:00,
2013-02-17 02:38:00,43.6,28.5,30.20,SSW,205,0.0,0.0,55,0.00,CLR,,0.00,WeatherDisplay:10.37,2013-02-17 08:38:00,
2013-02-17 02:43:00,43.7,28.6,30.20,SSW,205,0.0,0.0,55,0.00,CLR,,0.00,WeatherDisplay:10.37,2013-02-17 08:43:00,
2013-02-17 02:48:00,43.7,28.6,30.19,SSW,205,0.0,0.0,55,0.00,CLR,,0.00,WeatherDisplay:10.37,2013-02-17 08:48:00,
2013-02-17 02:53:00,43.5,28.8,30.19,SSW,205,0.0,0.0,56,0.00,CLR,,0.00,WeatherDisplay:10.37,2013-02-17 08:53:00,
2013-02-17 02:58:00,43.3,28.6,30.19,SSW,205,0.0,0.6,56,0.00,CLR,,0.00,WeatherDisplay:10.37,2013-02-17 08:58:00,
2013-02-17 03:03:00,43.1,28.9,30.19,SSW,205,1.2,1.2,57,0.00,CLR,,0.00,WeatherDisplay:10.37,2013-02-17 09:03:00,
2013-02-17 03:08:00,42.9,28.7,30.19,SSW,205,0.0,0.0,57,0.00,CLR,,0.00,WeatherDisplay:10.37,2013-02-17 09:08:00,
2013-02-17 03:13:00,42.8,29.0,30.19,SSW,205,2.3,2.3,58,0.00,CLR,,0.00,WeatherDisplay:10.37,2013-02-17 09:13:00,
2013-02-17 03:18:00,42.7,28.9,30.19,SSW,205,1.2,1.2,58,0.00,CLR,,0.00,WeatherDisplay:10.37,2013-02-17 09:18:00,
2013-02-17 03:23:00,42.7,28.9,30.19,SSW,205,2.3,2.3,58,0.00,CLR,,0.00,WeatherDisplay:10.37,2013-02-17 09:23:00,
2013-02-17 03:28:00,42.7,28.9,30.18,SSW,205,1.2,1.2,58,0.00,CLR,,0.00,WeatherDisplay:10.37,2013-02-17 09:28:00,
2013-02-17 03:33:00,42.6,28.8,30.18,SSW,205,3.5,3.5,58,0.00,CLR,,0.00,WeatherDisplay:10.37,2013-02-17 09:33:00,
2013-02-17 03:38:00,42.6,28.8,30.18,SSW,205,2.3,2.3,58,0.00,CLR,,0.00,WeatherDisplay:10.37,2013-02-17 09:38:00,
2013-02-17 03:43:00,42.4,28.7,30.18,SSW,205,1.2,0.0,58,0.00,CLR,,0.00,WeatherDisplay:10.37,2013-02-17 09:43:00,
2013-02-17 03:48:00,42.3,28.6,30.18,SSW,205,0.0,0.0,58,0.00,CLR,,0.00,WeatherDisplay:10.37,2013-02-17 09:48:00,
2013-02-17 03:53:00,42.3,29.0,30.18,SSW,205,1.2,1.2,59,0.00,CLR,,0.00,WeatherDisplay:10.37,2013-02-17 09:53:00,
2013-02-17 03:58:00,42.3,29.0,30.18,SSW,205,2.0,2.0,59,0.00,CLR,,0.00,WeatherDisplay:10.37,2013-02-17 09:58:00,
2013-02-17 04:03:00,42.2,28.9,30.18,SSW,205,2.3,2.3,59,0.00,CLR,,0.00,WeatherDisplay:10.37,2013-02-17 10:03:00,
2013-02-17 04:08:00,42.2,29.3,30.18,SSW,205,1.0,1.0,60,0.00,CLR,,0.00,WeatherDisplay:10.37,2013-02-17 10:08:00,
2013-02-17 04:13:00,42.3,29.4,30.18,SSW,205,5.8,5.8,60,0.00,CLR,,0.00,WeatherDisplay:10.37,2013-02-17 10:13:00,
2013-02-17 04:18:00,42.4,29.5,30.18,SSW,206,2.3,2.3,60,0.00,CLR,,0.00,WeatherDisplay:10.37,2013-02-17 10:18:00,
2013-02-17 04:23:00,42.6,29.3,30.18,SSW,206,1.2,1.2,59,0.00,CLR,,0.00,WeatherDisplay:10.37,2013-02-17 10:23:00,
2013-02-17 04:28:00,42.8,29.5,30.18,SSW,206,2.3,2.3,59,0.00,CLR,,0.00,WeatherDisplay:10.37,2013-02-17 10:28:00,
2013-02-17 04:33:00,42.9,29.5,30.18,SSW,206,2.3,2.3,59,0.00,CLR,,0.00,WeatherDisplay:10.37,2013-02-17 10:33:00,
2013-02-17 04:38:00,43.0,29.6,30.18,SSW,208,2.3,2.3,59,0.00,CLR,,0.00,WeatherDisplay:10.37,2013-02-17 10:38:00,
2013-02-17 04:43:00,43.1,29.7,30.17,SSW,208,1.2,0.0,59,0.00,CLR,,0.00,WeatherDisplay:10.37,2013-02-17 10:43:00,
2013-02-17 04:48:00,43.2,29.8,30.18,SSW,208,0.0,0.0,59,0.00,CLR,,0.00,WeatherDisplay:10.37,2013-02-17 10:48:00,
2013-02-17 04:53:00,43.1,29.7,30.18,SSW,207,0.0,0.0,59,0.00,CLR,,0.00,WeatherDisplay:10.37,2013-02-17 10:53:00,
2013-02-17 04:58:00,43.1,29.7,30.18,SSW,208,0.0,0.0,59,0.00,CLR,,0.00,WeatherDisplay:10.37,2013-02-17 10:58:00,
2013-02-17 05:03:00,43.0,29.6,30.18,SSW,208,0.0,0.0,59,0.00,CLR,,0.00,WeatherDisplay:10.37,2013-02-17 11:03:00,
2013-02-17 05:08:00,42.9,29.5,30.17,SSW,207,0.0,0.0,59,0.00,CLR,,0.00,WeatherDisplay:10.37,2013-02-17 11:08:00,
2013-02-17 05:13:00,42.7,29.4,30.17,SSW,207,0.0,0.0,59,0.00,CLR,,0.00,WeatherDisplay:10.37,2013-02-17 11:13:00,
2013-02-17 05:18:00,42.4,29.1,30.17,SSW,208,0.0,0.0,59,0.00,CLR,,0.00,WeatherDisplay:10.37,2013-02-17 11:18:00,
2013-02-17 05:23:00,42.0,29.1,30.17,SSW,208,0.0,0.0,60,0.00,CLR,,0.00,WeatherDisplay:10.37,2013-02-17 11:23:00,
2013-02-17 05:28:00,41.7,29.2,30.17,SSW,208,0.0,0.0,61,0.00,CLR,,0.00,WeatherDisplay:10.37,2013-02-17 11:28:00,
2013-02-17 05:33:00,41.4,28.9,30.17,SSW,207,0.0,0.0,61,0.00,CLR,,0.00,WeatherDisplay:10.37,2013-02-17 11:33:00,
2013-02-17 05:38:00,41.1,28.7,30.17,SSW,207,0.0,0.0,61,0.00,CLR,,0.00,WeatherDisplay:10.37,2013-02-17 11:38:00,
2013-02-17 05:43:00,40.9,28.9,30.18,SSW,208,0.0,0.0,62,0.00,CLR,,0.00,WeatherDisplay:10.37,2013-02-17 11:43:00,
2013-02-17 05:48:00,40.7,28.7,30.18,SSW,208,0.0,0.0,62,0.00,CLR,,0.00,WeatherDisplay:10.37,2013-02-17 11:48:00,
2013-02-17 05:53:00,40.4,28.8,30.18,SSW,207,0.0,0.0,63,0.00,CLR,,0.00,WeatherDisplay:10.37,2013-02-17 11:53:00,
2013-02-17 05:58:00,40.2,28.6,30.18,SSW,208,0.0,0.0,63,0.00,CLR,,0.00,WeatherDisplay:10.37,2013-02-17 11:58:00,
2013-02-17 06:03:00,40.0,28.8,30.18,SSW,207,0.0,0.0,64,0.00,CLR,,0.00,WeatherDisplay:10.37,2013-02-17 12:03:00,
2013-02-17 06:08:00,39.9,29.1,30.18,SSW,208,0.0,0.0,65,0.00,CLR,,0.00,WeatherDisplay:10.37,2013-02-17 12:08:00,
2013-02-17 06:13:00,39.8,29.0,30.18,SSW,207,0.0,0.0,65,0.00,CLR,,0.00,WeatherDisplay:10.37,2013-02-17 12:13:00,
2013-02-17 06:17:00,39.8,29.0,30.18,SSW,207,0.0,0.0,65,0.00,CLR,,0.00,WeatherDisplay:10.37,2013-02-17 12:17:00,
2013-02-17 06:22:00,39.9,29.5,30.18,SSW,208,0.0,0.0,66,0.00,CLR,,0.00,WeatherDisplay:10.37,2013-02-17 12:22:00,
2013-02-17 06:27:00,39.9,29.5,30.18,SSW,208,0.0,0.0,66,0.00,CLR,,0.00,WeatherDisplay:10.37,2013-02-17 12:27:00,
2013-02-17 06:32:00,40.0,29.2,30.18,SSW,208,1.2,0.0,65,0.00,CLR,,0.00,WeatherDisplay:10.37,2013-02-17 12:32:00,
2013-02-17 06:37:00,40.1,29.3,30.18,SSW,207,0.0,0.0,65,0.00,CLR,,0.00,WeatherDisplay:10.37,2013-02-17 12:37:00,
2013-02-17 06:42:00,40.2,29.4,30.18,SSW,208,0.0,0.0,65,0.00,CLR,,0.00,WeatherDisplay:10.37,2013-02-17 12:42:00,
2013-02-17 06:47:00,40.2,29.4,30.18,SSW,208,0.0,0.0,65,0.00,CLR,,0.00,WeatherDisplay:10.37,2013-02-17 12:47:00,
2013-02-17 06:52:00,40.4,29.6,30.18,SSW,208,0.0,0.0,65,0.00,CLR,,0.00,WeatherDisplay:10.37,2013-02-17 12:52:00,
2013-02-17 06:57:00,40.6,29.7,30.18,SSW,207,0.0,0.0,65,0.00,CLR,,0.00,WeatherDisplay:10.37,2013-02-17 12:57:00,
2013-02-17 07:02:00,40.8,29.9,30.18,SSW,208,0.0,0.0,65,0.00,CLR,,0.00,WeatherDisplay:10.37,2013-02-17 13:02:00,
2013-02-17 07:07:00,40.9,30.0,30.18,SSW,208,0.0,0.0,65,0.00,CLR,,0.00,WeatherDisplay:10.37,2013-02-17 13:07:00,
2013-02-17 07:12:00,41.1,30.2,30.18,SSW,208,0.0,0.0,65,0.00,CLR,,0.00,WeatherDisplay:10.37,2013-02-17 13:12:00,
2013-02-17 07:17:00,41.2,30.3,30.18,SSW,208,2.3,0.0,65,0.00,CLR,,0.00,WeatherDisplay:10.37,2013-02-17 13:17:00,
2013-02-17 07:22:00,41.3,30.4,30.18,SSW,207,0.0,0.0,65,0.00,CLR,,0.00,WeatherDisplay:10.37,2013-02-17 13:22:00,
2013-02-17 07:27:00,41.3,30.4,30.18,SSW,208,2.3,2.3,65,0.00,CLR,,0.00,WeatherDisplay:10.37,2013-02-17 13:27:00,
2013-02-17 07:32:00,41.5,30.6,30.18,SSW,208,0.0,0.3,65,0.00,CLR,,0.00,WeatherDisplay:10.37,2013-02-17 13:32:00,
2013-02-17 07:37:00,41.6,30.7,30.18,SSW,208,3.5,3.5,65,0.00,CLR,,0.00,WeatherDisplay:10.37,2013-02-17 13:37:00,
2013-02-17 07:42:00,41.9,31.4,30.18,SSW,207,4.6,4.6,66,0.00,CLR,,0.00,WeatherDisplay:10.37,2013-02-17 13:42:00,
2013-02-17 07:47:00,42.2,31.6,30.18,SSW,209,11.5,11.5,66,0.00,CLR,,0.00,WeatherDisplay:10.37,2013-02-17 13:47:00,
2013-02-17 07:52:00,42.7,32.1,30.18,SSW,211,3.5,3.5,66,0.00,CLR,,0.00,WeatherDisplay:10.37,2013-02-17 13:52:00,
2013-02-17 07:57:00,43.3,32.3,30.19,SSW,211,4.6,4.6,65,0.00,CLR,,0.00,WeatherDisplay:10.37,2013-02-17 13:57:00,
2013-02-17 08:02:00,43.8,32.4,30.19,SSW,213,4.6,4.6,64,0.00,CLR,,0.00,WeatherDisplay:10.37,2013-02-17 14:02:00,
2013-02-17 08:07:00,44.4,33.0,30.19,SW,215,6.9,6.9,64,0.00,CLR,,0.00,WeatherDisplay:10.37,2013-02-17 14:07:00,
2013-02-17 08:12:00,44.9,33.1,30.19,SW,218,10.4,10.4,63,0.00,CLR,,0.00,WeatherDisplay:10.37,2013-02-17 14:12:00,
2013-02-17 08:17:00,45.4,33.1,30.19,SW,221,5.8,5.8,62,0.00,CLR,,0.00,WeatherDisplay:10.37,2013-02-17 14:17:00,
2013-02-17 08:22:00,45.8,33.5,30.19,SW,218,10.4,10.4,62,0.00,CLR,,0.00,WeatherDisplay:10.37,2013-02-17 14:22:00,
2013-02-17 08:27:00,46.2,33.5,30.19,SW,218,6.9,6.9,61,0.00,CLR,,0.00,WeatherDisplay:10.37,2013-02-17 14:27:00,
2013-02-17 08:32:00,46.6,33.9,30.19,SW,217,8.1,8.1,61,0.00,CLR,,0.00,WeatherDisplay:10.37,2013-02-17 14:32:00,
2013-02-17 08:37:00,47.0,33.8,30.19,SSW,213,9.2,9.2,60,0.00,CLR,,0.00,WeatherDisplay:10.37,2013-02-17 14:37:00,
2013-02-17 08:42:00,47.4,34.2,30.19,SW,214,6.9,6.9,60,0.00,CLR,,0.00,WeatherDisplay:10.37,2013-02-17 14:42:00,
2013-02-17 08:47:00,47.9,34.7,30.19,SW,215,5.8,5.8,60,0.00,CLR,,0.00,WeatherDisplay:10.37,2013-02-17 14:47:00,
2013-02-17 08:52:00,48.3,34.6,30.19,SSW,213,10.0,10.0,59,0.00,CLR,,0.00,WeatherDisplay:10.37,2013-02-17 14:52:00,
2013-02-17 08:57:00,48.7,35.0,30.19,SW,225,10.4,10.4,59,0.00,CLR,,0.00,WeatherDisplay:10.37,2013-02-17 14:57:00,
2013-02-17 09:02:00,49.0,35.3,30.19,SW,218,9.2,9.2,59,0.00,CLR,,0.00,WeatherDisplay:10.37,2013-02-17 15:02:00,
2013-02-17 09:07:00,49.6,35.4,30.19,SW,218,3.5,3.5,58,0.00,CLR,,0.00,WeatherDisplay:10.37,2013-02-17 15:07:00,
2013-02-17 09:12:00,50.2,35.5,30.20,SSW,199,6.9,6.9,57,0.00,CLR,,0.00,WeatherDisplay:10.37,2013-02-17 15:12:00,
2013-02-17 09:17:00,50.7,35.6,30.20,SW,215,10.0,10.0,56,0.00,CLR,,0.00,WeatherDisplay:10.37,2013-02-17 15:17:00,
2013-02-17 09:22:00,51.1,35.0,30.19,South,184,15.0,15.0,54,0.00,CLR,,0.00,WeatherDisplay:10.37,2013-02-17 15:22:00,
2013-02-17 09:27:00,51.4,35.3,30.20,SW,228,11.5,11.5,54,0.00,CLR,,0.00,WeatherDisplay:10.37,2013-02-17 15:27:00,
2013-02-17 09:32:00,51.6,35.9,30.20,SW,225,9.2,9.2,55,0.00,CLR,,0.00,WeatherDisplay:10.37,2013-02-17 15:32:00,
2013-02-17 09:37:00,52.2,35.6,30.20,SSW,199,11.5,11.5,53,0.00,CLR,,0.00,WeatherDisplay:10.37,2013-02-17 15:37:00,
2013-02-17 09:42:00,52.8,36.1,30.20,SSW,206,6.9,6.9,53,0.00,CLR,,0.00,WeatherDisplay:10.37,2013-02-17 15:42:00,
2013-02-17 09:47:00,53.1,35.4,30.20,WSW,237,12.7,12.7,51,0.00,CLR,,0.00,WeatherDisplay:10.37,2013-02-17 15:47:00,
2013-02-17 09:52:00,53.3,36.1,30.19,SW,236,10.4,10.4,52,0.00,CLR,,0.00,WeatherDisplay:10.37,2013-02-17 15:52:00,
2013-02-17 09:57:00,53.5,35.3,30.19,SW,232,11.5,11.5,50,0.00,CLR,,0.00,WeatherDisplay:10.37,2013-02-17 15:57:00,
2013-02-17 10:02:00,53.8,35.6,30.19,SW,232,11.5,11.5,50,0.00,CLR,,0.00,WeatherDisplay:10.37,2013-02-17 16:02:00,
2013-02-17 10:07:00,54.3,35.5,30.19,SSW,194,10.4,10.4,49,0.00,CLR,,0.00,WeatherDisplay:10.37,2013-02-17 16:07:00,
2013-02-17 10:12:00,54.6,35.8,30.19,SW,218,11.5,11.5,49,0.00,CLR,,0.00,WeatherDisplay:10.37,2013-02-17 16:12:00,
2013-02-17 10:17:00,54.9,36.1,30.19,SSW,195,11.5,11.5,49,0.00,CLR,,0.00,WeatherDisplay:10.37,2013-02-17 16:17:00,
2013-02-17 10:22:00,55.3,35.9,30.19,SW,222,11.0,11.0,48,0.00,CLR,,0.00,WeatherDisplay:10.37,2013-02-17 16:22:00,
2013-02-17 10:27:00,55.9,35.9,30.18,SSW,195,8.1,8.1,47,0.00,CLR,,0.00,WeatherDisplay:10.37,2013-02-17 16:27:00,
2013-02-17 10:32:00,56.6,36.6,30.18,SSW,205,6.9,6.9,47,0.00,CLR,,0.00,WeatherDisplay:10.37,2013-02-17 16:32:00,
2013-02-17 10:37:00,57.1,35.9,30.18,SSW,196,9.2,9.2,45,0.00,CLR,,0.00,WeatherDisplay:10.37,2013-02-17 16:37:00,
2013-02-17 10:42:00,57.4,35.6,30.18,SSW,212,15.0,15.0,44,0.00,CLR,,0.00,WeatherDisplay:10.37,2013-02-17 16:42:00,
2013-02-17 10:47:00,57.5,36.3,30.18,SSW,199,13.8,13.8,45,0.00,CLR,,0.00,WeatherDisplay:10.37,2013-02-17 16:47:00,
2013-02-17 10:52:00,58.1,36.3,30.18,SW,218,11.5,11.5,44,0.00,CLR,,0.00,WeatherDisplay:10.37,2013-02-17 16:52:00,
2013-02-17 10:57:00,58.4,36.6,30.18,SW,221,16.1,16.1,44,0.00,CLR,,0.00,WeatherDisplay:10.37,2013-02-17 16:57:00,
2013-02-17 11:02:00,58.8,36.3,30.18,South,179,11.5,11.5,43,0.00,CLR,,0.00,WeatherDisplay:10.37,2013-02-17 17:02:00,
2013-02-17 11:07:00,59.4,36.9,30.17,SSW,196,12.7,12.7,43,0.00,CLR,,0.00,WeatherDisplay:10.37,2013-02-17 17:07:00,
2013-02-17 11:12:00,59.9,36.1,30.17,South,187,12.7,12.7,41,0.00,CLR,,0.00,WeatherDisplay:10.37,2013-02-17 17:12:00,
2013-02-17 11:17:00,60.0,36.2,30.17,South,169,13.8,13.8,41,0.00,CLR,,0.00,WeatherDisplay:10.37,2013-02-17 17:17:00,
2013-02-17 11:22:00,60.2,36.4,30.17,South,172,15.0,15.0,41,0.00,CLR,,0.00,WeatherDisplay:10.37,2013-02-17 17:22:00,
2013-02-17 11:27:00,60.2,36.4,30.17,South,184,18.4,18.4,41,0.00,CLR,,0.00,WeatherDisplay:10.37,2013-02-17 17:27:00,
2013-02-17 11:32:00,60.4,36.6,30.16,SSE,153,13.8,13.8,41,0.00,CLR,,0.00,WeatherDisplay:10.37,2013-02-17 17:32:00,
2013-02-17 11:37:00,60.5,36.0,30.16,SSW,195,20.7,20.7,40,0.00,CLR,,0.00,WeatherDisplay:10.37,2013-02-17 17:37:00,
2013-02-17 11:42:00,60.4,35.3,30.16,SW,225,19.6,19.6,39,0.00,CLR,,0.00,WeatherDisplay:10.37,2013-02-17 17:42:00,
2013-02-17 11:47:00,60.4,35.3,30.16,SSW,203,17.3,17.3,39,0.00,CLR,,0.00,WeatherDisplay:10.37,2013-02-17 17:47:00,
2013-02-17 11:52:00,60.7,36.2,30.16,SW,234,17.3,17.3,40,0.00,CLR,,0.00,WeatherDisplay:10.37,2013-02-17 17:52:00,
2013-02-17 11:57:00,61.1,35.3,30.15,South,183,19.6,19.6,38,0.00,CLR,,0.00,WeatherDisplay:10.37,2013-02-17 17:57:00,
2013-02-17 12:02:00,61.5,35.6,30.15,SSW,192,11.5,11.5,38,0.00,CLR,,0.00,WeatherDisplay:10.37,2013-02-17 18:02:00,
2013-02-17 12:07:00,62.0,35.4,30.14,South,182,18.4,18.4,37,0.00,CLR,,0.00,WeatherDisplay:10.37,2013-02-17 18:07:00,
2013-02-17 12:12:00,62.3,35.7,30.14,SW,219,20.7,20.7,37,0.00,CLR,,0.00,WeatherDisplay:10.37,2013-02-17 18:12:00,
2013-02-17 12:17:00,62.4,35.8,30.14,SW,220,16.1,16.1,37,0.00,CLR,,0.00,WeatherDisplay:10.37,2013-02-17 18:17:00,
2013-02-17 12:22:00,62.6,36.6,30.13,SSE,156,18.4,18.4,38,0.00,CLR,,0.00,WeatherDisplay:10.37,2013-02-17 18:22:00,
2013-02-17 12:27:00,62.9,36.2,30.13,South,186,13.8,13.8,37,0.00,CLR,,0.00,WeatherDisplay:10.37,2013-02-17 18:27:00,
2013-02-17 12:32:00,63.0,36.3,30.12,South,170,13.8,13.8,37,0.00,CLR,,0.00,WeatherDisplay:10.37,2013-02-17 18:32:00,
2013-02-17 12:37:00,63.5,37.4,30.12,SSE,166,16.1,16.1,38,0.00,CLR,,0.00,WeatherDisplay:10.37,2013-02-17 18:37:00,
2013-02-17 12:42:00,64.0,37.9,30.11,South,190,14.0,14.0,38,0.00,CLR,,0.00,WeatherDisplay:10.37,2013-02-17 18:42:00,
2013-02-17 12:47:00,64.2,38.7,30.11,SSE,167,15.0,15.0,39,0.00,CLR,,0.00,WeatherDisplay:10.37,2013-02-17 18:47:00,
2013-02-17 12:52:00,64.8,37.9,30.10,SSW,192,19.6,19.6,37,0.00,CLR,,0.00,WeatherDisplay:10.37,2013-02-17 18:52:00,
2013-02-17 12:57:00,64.7,37.8,30.10,SSE,163,19.6,19.6,37,0.00,CLR,,0.00,WeatherDisplay:10.37,2013-02-17 18:57:00,
2013-02-17 13:03:00,64.8,37.9,30.09,SSW,209,20.7,20.7,37,0.00,CLR,,0.00,WeatherDisplay:10.37,2013-02-17 19:03:00,
2013-02-17 13:07:00,65.1,38.2,30.09,SSW,196,19.6,19.6,37,0.00,CLR,,0.00,WeatherDisplay:10.37,2013-02-17 19:07:00,
2013-02-17 13:12:00,65.2,38.9,30.09,South,182,13.8,13.8,38,0.00,CLR,,0.00,WeatherDisplay:10.37,2013-02-17 19:12:00,
2013-02-17 13:17:00,65.4,39.1,30.08,South,191,12.7,12.7,38,0.00,CLR,,0.00,WeatherDisplay:10.37,2013-02-17 19:17:00,
2013-02-17 13:22:00,65.8,39.5,30.08,SSE,157,17.3,17.3,38,0.00,CLR,,0.00,WeatherDisplay:10.37,2013-02-17 19:22:00,
2013-02-17 13:27:00,65.7,39.4,30.08,SSE,163,11.5,12.3,38,0.00,CLR,,0.00,WeatherDisplay:10.37,2013-02-17 19:27:00,
2013-02-17 13:32:00,65.8,40.1,30.07,SSE,159,18.4,18.4,39,0.00,CLR,,0.00,WeatherDisplay:10.37,2013-02-17 19:32:00,
2013-02-17 13:37:00,66.0,40.3,30.07,South,187,16.1,16.1,39,0.00,CLR,,0.00,WeatherDisplay:10.37,2013-02-17 19:37:00,
2013-02-17 13:42:00,66.1,41.1,30.06,SSW,209,18.4,18.4,40,0.00,CLR,,0.00,WeatherDisplay:10.37,2013-02-17 19:42:00,
2013-02-17 13:47:00,66.1,41.1,30.06,WSW,237,15.0,15.0,40,0.00,CLR,,0.00,WeatherDisplay:10.37,2013-02-17 19:47:00,
2013-02-17 13:52:00,66.3,40.6,30.06,South,169,16.1,16.1,39,0.00,CLR,,0.00,WeatherDisplay:10.37,2013-02-17 19:52:00,
2013-02-17 13:57:00,66.4,40.0,30.05,SSE,156,18.4,18.4,38,0.00,CLR,,0.00,WeatherDisplay:10.37,2013-02-17 19:57:00,
2013-02-17 14:02:00,66.4,40.0,30.05,South,175,16.1,16.1,38,0.00,CLR,,0.00,WeatherDisplay:10.37,2013-02-17 20:02:00,
2013-02-17 14:07:00,66.7,40.3,30.05,SE,146,17.3,17.3,38,0.00,CLR,,0.00,WeatherDisplay:10.37,2013-02-17 20:07:00,
2013-02-17 14:12:00,67.0,40.5,30.04,SSE,159,25.3,25.3,38,0.00,CLR,,0.00,WeatherDisplay:10.37,2013-02-17 20:12:00,
2013-02-17 14:17:00,67.3,40.8,30.04,SSE,148,19.6,19.6,38,0.00,CLR,,0.00,WeatherDisplay:10.37,2013-02-17 20:17:00,
2013-02-17 14:22:00,67.2,40.7,30.03,South,187,18.0,18.0,38,0.00,CLR,,0.00,WeatherDisplay:10.37,2013-02-17 20:22:00,
2013-02-17 14:27:00,67.4,40.9,30.03,SSE,164,12.7,12.7,38,0.00,CLR,,0.00,WeatherDisplay:10.37,2013-02-17 20:27:00,
2013-02-17 14:32:00,67.4,40.9,30.03,South,179,15.0,15.0,38,0.00,CLR,,0.00,WeatherDisplay:10.37,2013-02-17 20:32:00,
2013-02-17 14:37:00,67.5,41.0,30.03,South,169,15.0,15.0,38,0.00,CLR,,0.00,WeatherDisplay:10.37,2013-02-17 20:37:00,
2013-02-17 14:42:00,67.6,41.1,30.03,South,183,13.8,13.8,38,0.00,CLR,,0.00,WeatherDisplay:10.37,2013-02-17 20:42:00,
2013-02-17 14:47:00,67.9,41.3,30.03,South,186,24.2,24.2,38,0.00,CLR,,0.00,WeatherDisplay:10.37,2013-02-17 20:47:00,
2013-02-17 14:52:00,67.6,41.7,30.02,South,169,20.7,20.7,39,0.00,CLR,,0.00,WeatherDisplay:10.37,2013-02-17 20:52:00,
2013-02-17 14:57:00,67.6,41.7,30.02,SSE,152,17.3,17.3,39,0.00,CLR,,0.00,WeatherDisplay:10.37,2013-02-17 20:57:00,
2013-02-17 15:03:00,67.8,42.6,30.02,South,178,12.7,12.7,40,0.00,CLR,,0.00,WeatherDisplay:10.37,2013-02-17 21:03:00,
2013-02-17 15:08:00,67.7,42.5,30.01,South,180,19.6,19.6,40,0.00,CLR,,0.00,WeatherDisplay:10.37,2013-02-17 21:08:00,
2013-02-17 15:13:00,68.0,42.8,30.01,South,178,25.3,25.3,40,0.00,CLR,,0.00,WeatherDisplay:10.37,2013-02-17 21:13:00,
2013-02-17 15:18:00,67.8,42.6,30.01,SSE,155,21.9,21.9,40,0.00,CLR,,0.00,WeatherDisplay:10.37,2013-02-17 21:18:00,
2013-02-17 15:23:00,67.7,42.5,30.00,South,183,12.7,12.7,40,0.00,CLR,,0.00,WeatherDisplay:10.37,2013-02-17 21:23:00,
2013-02-17 15:28:00,68.0,43.4,30.00,South,173,18.4,18.4,41,0.00,CLR,,0.00,WeatherDisplay:10.37,2013-02-17 21:28:00,
2013-02-17 15:33:00,68.2,42.9,30.00,SSW,205,18.4,18.4,40,0.00,CLR,,0.00,WeatherDisplay:10.37,2013-02-17 21:33:00,
2013-02-17 15:38:00,68.1,43.5,30.00,SSE,163,18.4,18.4,41,0.00,CLR,,0.00,WeatherDisplay:10.37,2013-02-17 21:38:00,
2013-02-17 15:43:00,68.1,43.5,30.00,South,175,24.2,24.2,41,0.00,CLR,,0.00,WeatherDisplay:10.37,2013-02-17 21:43:00,
2013-02-17 15:48:00,68.1,43.5,30.00,SSW,192,19.6,19.6,41,0.00,CLR,,0.00,WeatherDisplay:10.37,2013-02-17 21:48:00,
2013-02-17 15:53:00,68.1,43.5,30.00,South,171,18.4,18.4,41,0.00,CLR,,0.00,WeatherDisplay:10.37,2013-02-17 21:53:00,
2013-02-17 15:58:00,68.1,43.5,30.00,South,173,17.3,17.3,41,0.00,CLR,,0.00,WeatherDisplay:10.37,2013-02-17 21:58:00,
2013-02-17 16:03:00,67.9,43.3,29.99,South,175,26.5,26.5,41,0.00,CLR,,0.00,WeatherDisplay:10.37,2013-02-17 22:03:00,
2013-02-17 16:08:00,67.8,43.9,29.99,SSE,167,21.9,21.9,42,0.00,CLR,,0.00,WeatherDisplay:10.37,2013-02-17 22:08:00,
2013-02-17 16:13:00,68.0,44.0,29.99,SSW,196,18.4,18.4,42,0.00,CLR,,0.00,WeatherDisplay:10.37,2013-02-17 22:13:00,
2013-02-17 16:18:00,67.8,43.9,29.99,South,170,15.0,15.0,42,0.00,CLR,,0.00,WeatherDisplay:10.37,2013-02-17 22:18:00,
2013-02-17 16:23:00,68.0,44.7,29.99,South,182,23.0,23.0,43,0.00,CLR,,0.00,WeatherDisplay:10.37,2013-02-17 22:23:00,
2013-02-17 16:28:00,68.3,44.3,29.98,SSE,158,19.6,19.6,42,0.00,CLR,,0.00,WeatherDisplay:10.37,2013-02-17 22:28:00,
2013-02-17 16:33:00,68.0,44.0,29.98,South,171,19.6,19.6,42,0.00,CLR,,0.00,WeatherDisplay:10.37,2013-02-17 22:33:00,
2013-02-17 16:38:00,67.5,44.2,29.98,South,179,21.9,21.9,43,0.00,CLR,,0.00,WeatherDisplay:10.37,2013-02-17 22:38:00,
2013-02-17 16:43:00,67.2,43.9,29.98,South,176,26.5,26.5,43,0.00,CLR,,0.00,WeatherDisplay:10.37,2013-02-17 22:43:00,
2013-02-17 16:48:00,67.1,44.4,29.98,South,184,19.6,19.6,44,0.00,CLR,,0.00,WeatherDisplay:10.37,2013-02-17 22:48:00,
2013-02-17 16:53:00,66.9,44.3,29.98,South,182,17.3,17.3,44,0.00,CLR,,0.00,WeatherDisplay:10.37,2013-02-17 22:53:00,
2013-02-17 16:58:00,66.5,43.9,29.98,South,174,19.0,19.0,44,0.00,CLR,,0.00,WeatherDisplay:10.37,2013-02-17 22:58:00,
2013-02-17 17:03:00,66.3,44.3,29.98,SSE,165,18.4,18.4,45,0.00,CLR,,0.00,WeatherDisplay:10.37,2013-02-17 23:03:00,
2013-02-17 17:08:00,66.3,44.3,29.98,South,179,17.3,17.3,45,0.00,CLR,,0.00,WeatherDisplay:10.37,2013-02-17 23:08:00,
2013-02-17 17:13:00,66.3,44.9,29.98,SE,134,20.7,20.7,46,0.00,CLR,,0.00,WeatherDisplay:10.37,2013-02-17 23:13:00,
2013-02-17 17:18:00,65.9,45.6,29.98,SSE,164,13.8,13.8,48,0.00,CLR,,0.00,WeatherDisplay:10.37,2013-02-17 23:18:00,
2013-02-17 17:23:00,65.5,45.8,29.98,SSE,147,17.3,17.3,49,0.00,CLR,,0.00,WeatherDisplay:10.37,2013-02-17 23:23:00,
2013-02-17 17:28:00,65.3,45.6,29.98,SSE,168,17.3,17.3,49,0.00,CLR,,0.00,WeatherDisplay:10.37,2013-02-17 23:28:00,
2013-02-17 17:33:00,65.2,46.1,29.98,SSE,152,24.2,24.2,50,0.00,CLR,,0.00,WeatherDisplay:10.37,2013-02-17 23:33:00,
2013-02-17 17:38:00,64.9,45.8,29.98,ESE,121,23.0,23.0,50,0.00,CLR,,0.00,WeatherDisplay:10.37,2013-02-17 23:38:00,
2013-02-17 17:43:00,64.6,46.1,29.98,SSE,155,16.1,16.1,51,0.00,CLR,,0.00,WeatherDisplay:10.37,2013-02-17 23:43:00,
2013-02-17 17:48:00,64.3,45.8,29.98,SE,146,13.8,13.8,51,0.00,CLR,,0.00,WeatherDisplay:10.37,2013-02-17 23:48:00,
2013-02-17 17:53:00,64.1,46.1,29.98,SSE,154,11.5,11.5,52,0.00,CLR,,0.00,WeatherDisplay:10.37,2013-02-17 23:53:00,
2013-02-17 17:58:00,63.8,45.8,29.98,SE,144,20.7,20.7,52,0.00,CLR,,0.00,WeatherDisplay:10.37,2013-02-17 23:58:00,
2013-02-17 18:03:00,63.7,46.2,29.98,SSE,152,17.3,17.3,53,0.00,CLR,,0.00,WeatherDisplay:10.37,2013-02-18 00:03:00,
2013-02-17 18:08:00,63.5,46.1,29.98,South,180,21.9,21.9,53,0.00,CLR,,0.00,WeatherDisplay:10.37,2013-02-18 00:08:00,
2013-02-17 18:13:00,63.2,45.8,29.98,SSE,154,14.0,14.0,53,0.00,CLR,,0.00,WeatherDisplay:10.37,2013-02-18 00:13:00,
2013-02-17 18:18:00,63.0,46.1,29.98,SSE,165,18.4,18.4,54,0.00,CLR,,0.00,WeatherDisplay:10.37,2013-02-18 00:18:00,
2013-02-17 18:23:00,62.8,45.9,29.98,SSE,164,19.6,19.6,54,0.00,CLR,,0.00,WeatherDisplay:10.37,2013-02-18 00:23:00,
2013-02-17 18:28:00,62.6,46.2,29.98,SSE,153,15.0,15.0,55,0.00,CLR,,0.00,WeatherDisplay:10.37,2013-02-18 00:28:00,
2013-02-17 18:33:00,62.4,46.0,29.98,SSE,149,13.8,13.8,55,0.00,CLR,,0.00,WeatherDisplay:10.37,2013-02-18 00:33:00,
2013-02-17 18:38:00,62.3,46.4,29.98,SSE,167,17.0,17.0,56,0.00,CLR,,0.00,WeatherDisplay:10.37,2013-02-18 00:38:00,
2013-02-17 18:43:00,62.2,46.3,29.99,SSE,165,19.6,19.6,56,0.00,CLR,,0.00,WeatherDisplay:10.37,2013-02-18 00:43:00,
2013-02-17 18:48:00,62.1,46.7,29.98,SSE,156,18.4,18.4,57,0.00,CLR,,0.00,WeatherDisplay:10.37,2013-02-18 00:48:00,
2013-02-17 18:53:00,61.9,46.5,29.98,SSE,157,18.4,18.4,57,0.00,CLR,,0.00,WeatherDisplay:10.37,2013-02-18 00:53:00,
2013-02-17 18:58:00,61.8,46.9,29.98,SSE,161,16.1,16.1,58,0.00,CLR,,0.00,WeatherDisplay:10.37,2013-02-18 00:58:00,
2013-02-17 19:03:00,61.7,46.8,29.98,SSE,156,16.1,16.1,58,0.00,CLR,,0.00,WeatherDisplay:10.37,2013-02-18 01:03:00,
2013-02-17 19:08:00,61.6,46.7,29.98,South,169,18.4,18.4,58,0.00,CLR,,0.00,WeatherDisplay:10.37,2013-02-18 01:08:00,
2013-02-17 19:13:00,61.5,47.0,29.98,SSE,151,19.6,19.6,59,0.00,CLR,,0.00,WeatherDisplay:10.37,2013-02-18 01:13:00,
2013-02-17 19:18:00,61.4,47.4,29.98,SE,146,20.7,20.7,60,0.00,CLR,,0.00,WeatherDisplay:10.37,2013-02-18 01:18:00,
2013-02-17 19:23:00,61.3,47.3,29.98,SSE,154,20.0,20.0,60,0.00,CLR,,0.00,WeatherDisplay:10.37,2013-02-18 01:23:00,
2013-02-17 19:28:00,61.2,47.6,29.98,SE,140,19.6,19.6,61,0.00,CLR,,0.00,WeatherDisplay:10.37,2013-02-18 01:28:00,
2013-02-17 19:33:00,61.1,47.5,29.98,SE,146,17.3,17.3,61,0.00,CLR,,0.00,WeatherDisplay:10.37,2013-02-18 01:33:00,
2013-02-17 19:38:00,61.1,47.5,29.98,SSE,163,16.1,16.1,61,0.00,CLR,,0.00,WeatherDisplay:10.37,2013-02-18 01:38:00,
2013-02-17 19:43:00,61.0,47.9,29.98,SSE,153,16.1,16.1,62,0.00,CLR,,0.00,WeatherDisplay:10.37,2013-02-18 01:43:00,
2013-02-17 19:48:00,60.9,47.8,29.99,SSE,167,20.7,20.7,62,0.00,CLR,,0.00,WeatherDisplay:10.37,2013-02-18 01:48:00,
2013-02-17 19:53:00,60.8,48.1,29.99,SSE,152,19.6,19.6,63,0.00,CLR,,0.00,WeatherDisplay:10.37,2013-02-18 01:53:00,
2013-02-17 19:58:00,60.8,48.1,29.99,SSE,161,13.8,13.8,63,0.00,CLR,,0.00,WeatherDisplay:10.37,2013-02-18 01:58:00,
2013-02-17 20:03:00,60.7,48.0,29.99,South,180,20.7,20.7,63,0.00,CLR,,0.00,WeatherDisplay:10.37,2013-02-18 02:03:00,
2013-02-17 20:08:00,60.7,48.4,29.99,SSE,167,19.6,19.6,64,0.00,CLR,,0.00,WeatherDisplay:10.37,2013-02-18 02:08:00,
2013-02-17 20:13:00,60.7,48.4,29.99,SSE,154,12.7,12.7,64,0.00,CLR,,0.00,WeatherDisplay:10.37,2013-02-18 02:13:00,
2013-02-17 20:18:00,60.6,48.4,29.99,SSE,152,15.0,15.0,64,0.00,CLR,,0.00,WeatherDisplay:10.37,2013-02-18 02:18:00,
2013-02-17 20:23:00,60.6,48.4,29.99,SSE,167,17.3,17.3,64,0.00,CLR,,0.00,WeatherDisplay:10.37,2013-02-18 02:23:00,
2013-02-17 20:28:00,60.6,48.8,29.99,SE,142,20.7,20.7,65,0.00,CLR,,0.00,WeatherDisplay:10.37,2013-02-18 02:28:00,
2013-02-17 20:33:00,60.5,48.7,29.99,South,175,15.0,15.0,65,0.00,CLR,,0.00,WeatherDisplay:10.37,2013-02-18 02:33:00,
2013-02-17 20:38:00,60.5,49.1,29.99,SSE,152,19.6,19.6,66,0.00,CLR,,0.00,WeatherDisplay:10.37,2013-02-18 02:38:00,
2013-02-17 20:43:00,60.4,49.0,29.99,SE,142,20.7,20.7,66,0.00,CLR,,0.00,WeatherDisplay:10.37,2013-02-18 02:43:00,
2013-02-17 20:48:00,60.4,49.0,29.99,SSE,155,18.4,18.4,66,0.00,CLR,,0.00,WeatherDisplay:10.37,2013-02-18 02:48:00,
2013-02-17 20:53:00,60.4,49.0,29.99,South,172,13.8,13.8,66,0.00,CLR,,0.00,WeatherDisplay:10.37,2013-02-18 02:53:00,
2013-02-17 20:58:00,60.4,49.4,29.99,SE,140,11.5,11.5,67,0.00,CLR,,0.00,WeatherDisplay:10.37,2013-02-18 02:58:00,
2013-02-17 21:03:00,60.4,49.4,30.00,SE,134,18.4,18.4,67,0.00,CLR,,0.00,WeatherDisplay:10.37,2013-02-18 03:03:00,
2013-02-17 21:08:00,60.3,49.3,29.99,South,169,16.1,16.1,67,0.00,CLR,,0.00,WeatherDisplay:10.37,2013-02-18 03:08:00,
2013-02-17 21:13:00,60.4,49.8,29.99,SE,142,18.4,18.4,68,0.00,CLR,,0.00,WeatherDisplay:10.37,2013-02-18 03:13:00,
2013-02-17 21:18:00,60.3,49.7,29.99,SSE,163,16.1,16.1,68,0.00,CLR,,0.00,WeatherDisplay:10.37,2013-02-18 03:18:00,
2013-02-17 21:23:00,60.3,49.7,29.99,SE,138,17.3,17.3,68,0.00,CLR,,0.00,WeatherDisplay:10.37,2013-02-18 03:23:00,
2013-02-17 21:28:00,60.3,49.7,29.99,SSE,163,18.4,18.4,68,0.00,CLR,,0.00,WeatherDisplay:10.37,2013-02-18 03:28:00,
2013-02-17 21:33:00,60.2,49.6,29.99,SSE,165,13.8,13.8,68,0.00,CLR,,0.00,WeatherDisplay:10.37,2013-02-18 03:33:00,
2013-02-17 21:38:00,60.2,50.0,29.99,SSE,157,17.3,17.3,69,0.00,CLR,,0.00,WeatherDisplay:10.37,2013-02-18 03:38:00,
2013-02-17 21:43:00,60.2,50.0,29.99,SSE,155,12.7,12.7,69,0.00,CLR,,0.00,WeatherDisplay:10.37,2013-02-18 03:43:00,
2013-02-17 21:48:00,60.1,49.9,29.99,South,180,17.3,17.3,69,0.00,CLR,,0.00,WeatherDisplay:10.37,2013-02-18 03:48:00,
2013-02-17 21:53:00,60.1,49.9,29.99,SSE,163,16.1,16.1,69,0.00,CLR,,0.00,WeatherDisplay:10.37,2013-02-18 03:53:00,
2013-02-17 21:58:00,60.0,50.2,29.99,SSE,157,16.1,16.1,70,0.00,CLR,,0.00,WeatherDisplay:10.37,2013-02-18 03:58:00,
2013-02-17 22:03:00,60.0,50.2,29.99,SSE,164,17.3,17.3,70,0.00,CLR,,0.00,WeatherDisplay:10.37,2013-02-18 04:03:00,
2013-02-17 22:08:00,60.0,50.2,29.99,SSE,158,9.2,9.2,70,0.00,CLR,,0.00,WeatherDisplay:10.37,2013-02-18 04:08:00,
2013-02-17 22:13:00,60.0,50.6,29.99,SSE,163,19.6,19.6,71,0.00,CLR,,0.00,WeatherDisplay:10.37,2013-02-18 04:13:00,
2013-02-17 22:18:00,60.0,50.6,29.99,SSE,151,17.3,17.3,71,0.00,CLR,,0.00,WeatherDisplay:10.37,2013-02-18 04:18:00,
2013-02-17 22:23:00,60.1,50.7,29.99,South,171,15.0,15.0,71,0.00,CLR,,0.00,WeatherDisplay:10.37,2013-02-18 04:23:00,
2013-02-17 22:28:00,60.0,50.6,29.98,SSE,160,12.7,12.7,71,0.00,CLR,,0.00,WeatherDisplay:10.37,2013-02-18 04:28:00,
2013-02-17 22:33:00,60.1,51.0,29.98,SSE,164,12.7,12.7,72,0.00,CLR,,0.00,WeatherDisplay:10.37,2013-02-18 04:33:00,
2013-02-17 22:38:00,60.1,51.0,29.98,SSE,162,18.4,18.4,72,0.00,CLR,,0.00,WeatherDisplay:10.37,2013-02-18 04:38:00,
2013-02-17 22:43:00,60.2,51.1,29.98,SSE,147,10.4,10.4,72,0.00,CLR,,0.00,WeatherDisplay:10.37,2013-02-18 04:43:00,
2013-02-17 22:48:00,60.2,51.1,29.98,SSE,157,11.5,11.5,72,0.00,CLR,,0.00,WeatherDisplay:10.37,2013-02-18 04:48:00,
2013-02-17 22:53:00,60.2,51.1,29.98,South,172,21.9,21.9,72,0.00,CLR,,0.00,WeatherDisplay:10.37,2013-02-18 04:53:00,
2013-02-17 22:58:00,60.2,51.1,29.98,South,169,15.0,15.0,72,0.00,CLR,,0.00,WeatherDisplay:10.37,2013-02-18 04:58:00,
2013-02-17 23:00:00,60.3,51.6,29.97,South,182,13.8,13.8,73,0.00,CLR,,0.00,WeatherDisplay:10.37,2013-02-18 05:00:00,
2013-02-17 23:05:00,60.4,51.7,29.97,South,171,16.1,16.1,73,0.00,CLR,,0.00,WeatherDisplay:10.37,2013-02-18 05:05:00,
2013-02-17 23:10:00,60.4,51.7,29.98,SSE,153,15.0,15.0,73,0.00,CLR,,0.00,WeatherDisplay:10.37,2013-02-18 05:10:00,
2013-02-17 23:15:00,60.5,51.8,29.97,SSE,160,18.4,18.4,73,0.00,CLR,,0.00,WeatherDisplay:10.37,2013-02-18 05:15:00,
2013-02-17 23:20:00,60.6,51.9,29.97,South,190,15.0,15.0,73,0.00,CLR,,0.00,WeatherDisplay:10.37,2013-02-18 05:20:00,
2013-02-17 23:25:00,60.6,52.3,29.97,SSE,165,18.4,18.4,74,0.00,CLR,,0.00,WeatherDisplay:10.37,2013-02-18 05:25:00,
2013-02-17 23:30:00,60.7,52.4,29.97,SSE,155,16.1,16.1,74,0.00,CLR,,0.00,WeatherDisplay:10.37,2013-02-18 05:30:00,
2013-02-17 23:35:00,60.7,52.4,29.97,South,171,16.1,16.1,74,0.00,CLR,,0.00,WeatherDisplay:10.37,2013-02-18 05:35:00,
2013-02-17 23:40:00,60.7,52.4,29.97,South,175,19.6,19.6,74,0.00,CLR,,0.00,WeatherDisplay:10.37,2013-02-18 05:40:00,
2013-02-17 23:45:00,60.7,52.4,29.97,SSW,194,12.7,12.7,74,0.00,CLR,,0.00,WeatherDisplay:10.37,2013-02-18 05:45:00,
2013-02-17 23:50:00,60.8,52.5,29.96,South,174,17.3,17.3,74,0.00,CLR,,0.00,WeatherDisplay:10.37,2013-02-18 05:50:00,
2013-02-17 23:55:00,60.8,52.5,29.96,SSE,167,18.4,18.4,74,0.00,CLR,,0.00,WeatherDisplay:10.37,2013-02-18 05:55:00,